View from above orbital plane
|
View from above satellite
|
Ground track
|
The orbit data is extracted from the following two-line orbital elements,
1 14129U 83058B 21021.82556569 .00000147 00000-0 00000-0 0 9995
2 14129 25.7887 179.0897 6065622 303.3308 12.4702 2.05866858254908
Epoch (UTC): | 21 January 2021 19:48:48 |
Eccentricity: | 0.6065622 |
inclination: | 25.7887° |
perigee height: | 3891 km |
apogee height: | 35556 km |
right ascension of ascending node: | 179.0897° |
argument of perigee: | 303.3308° |
revolutions per day: | 2.05866858 |
mean anomaly at epoch: | 12.4702° |
orbit number at epoch: | 25490 |
The dashed part of the orbit path shows where the satellite is in the earth's shadow,
|
|